Miscellaneous Local Product
Issued by NWS Hastings, NE

Home | Current Version | Previous Version | Text Only | Print | Product List | Glossary Off
Versions: 1 2 3 4 5 6 7 8 9 10 11 12 13 14 15 16 17 18 19 20 21 22 23 24 25 26 27 28 29 30 31 32 33 34 35 36 37 38 39 40 41 42 43 44 45 46 47 48 49 50

000
AXUS43 KGID 230102
MISGRI

GID CWA HOURLY WEATHER ROUNDUP
NATIONAL WEATHER SERVICE HASTINGS NE
700 PM CST MON DEC 22 2014

NOTE: "FAIR" INDICATES FEW OR NO CLOUDS BELOW 12,000 FEET WITH NO
SIGNIFICANT WEATHER AND/OR OBSTRUCTIONS TO VISIBILITY.

...SOUTH CENTRAL NEBRASKA...

CITY           SKY/WX    TMP DP  RH WIND       PRES   REMARKS
GRAND ISLAND   CLEAR     36  29  75 NW15      29.52R WCI  27
HASTINGS       CLOUDY    40  29  64 NW16G25   29.53R WCI  31
KEARNEY        CLOUDY    39  30  70 NW12      29.55R WCI  32
ORD            NOT AVBL
YORK           CLOUDY    39  34  81 NW13      29.49S WCI  32
AURORA         PTCLDY    33  29  88 W9        29.51R WCI  25
LEXINGTON      CLOUDY    39  32  77 N9        29.55R WCI  33
HOLDREGE       CLOUDY    40  29  65 N9        29.54R WCI  34
HEBRON         PTCLDY    41  30  66 NW7       29.53R

...NEBRASKA PANHANDLE...

CITY           SKY/WX    TMP DP  RH WIND       PRES   REMARKS
CHADRON        CLOUDY    37  24  59 NW31G43   29.65R WCI  24
ALLIANCE       PTCLDY    35  22  58 NW29G37   29.61S WCI  22
SCOTTSBLUFF    PTCLDY    32  24  72 NW20      29.70R WCI  20
SIDNEY         PTCLDY    31  22  69 NW17      29.67R WCI  19

...WESTERN AND NORTH CENTRAL NEBRASKA...

CITY           SKY/WX    TMP DP  RH WIND       PRES   REMARKS
VALENTINE      FLURRIES  30  26  85 NW23G32   29.54R WCI  17
AINSWORTH      FLURRIES  31  28  89 NW24G30   29.52R WCI  17
ONEILL         CLOUDY    35  32  90 NW14      29.48S WCI  26
BROKEN BOW     CLOUDY    36  33  89 NW17      29.52S WCI  26
IMPERIAL       PTCLDY    34  24  67 W15       29.62R WCI  24
NORTH PLATTE   MOCLDY    37  26  64 NW13      29.56R WCI  29
MCCOOK         CLEAR     38  24  57 W15       29.59R WCI  29

...EASTERN NEBRASKA...

CITY           SKY/WX    TMP DP  RH WIND       PRES   REMARKS
NORFOLK        CLOUDY    37  35  92 NW10      29.46R WCI  30
SO SIOUX CITY  LGT RAIN  40  37  89 NW9       29.44R WCI  34
TEKAMAH        LGT RAIN  41  38  89 NW13      29.44R
COLUMBUS       CLOUDY    37  32  81 NW10      29.49R WCI  30
ALBION         CLOUDY    37  32  84 NW12      29.48S WCI  29
OMAHA EPPLEY   LGT RAIN  41  39  93 NW15      29.45R FOG
OFFUTT AFB     LGT RAIN  41  38  91 NW13      29.44R
MILLARD        LGT RAIN  41  39  92 NW8       29.44S
LINCOLN        CLOUDY    41  36  82 NW13      29.49R
NEBRASKA CITY  DRIZZLE   41  40  97 NW13G21   29.46R
BEATRICE       MOCLDY    40  35  81 NW9       29.49S WCI  35
FALLS CITY     LGT RAIN  43  43 100 W14       29.47R

...NORTHERN KANSAS...

CITY           SKY/WX    TMP DP  RH WIND       PRES   REMARKS
GOODLAND       PTCLDY    35  25  66 NW15      29.67R WCI  25
HILL CITY      CLEAR     38  23  55 W8        29.61R WCI  32
PHILLIPSBURG   PTCLDY    45  27  49 W8        29.58R
SMITH CENTER   CLEAR     39  27  60 W7        29.56S WCI  34
BELOIT         MOCLDY    39  30  70 SW6       29.55S WCI  35
HAYS           CLEAR     39  21  48 NW10      29.61R WCI  32
RUSSELL        CLEAR     41  26  55 W13       29.58R
CONCORDIA      MOCLDY    39  31  72 W5        29.54R
SALINA         CLOUDY    44  35  70 N10       29.57R
TOPEKA         CLOUDY    47  40  76 W9        29.52R



USA.gov is the U.S. government's official web portal to all federal, state and local government web resources and services.